Weather in Dolgiye

Russia / Kurgan Oblast     55°27′01″N   67°44′06″E
temp.,
°C
wind,
m/s
gust,
m/s
humid.,
%
clouds,
%
prec.,
mm/h
press.,
hPa
HPBL,
m
22 january, sat
sat2223:00−22sw2210028 0.0 10289
02:00−24w1110050 0.0 10299
05:00−24wsw2210086 0.0 10309
08:00−24wsw11100100 0.0 10319
11:00−18sw229574 0.0 103250
14:00−14wsw11905 0.0 103228
17:00−19wsw119649 0.0 10339
20:00−22wsw1110031 0.0 10349
23 january, sun
sun2323:00−21wsw11100100 0.0 10359
02:00−20wsw1110076 0.0 10369
05:00−21sw0010092 0.0 10369
08:00−23nnw1110066 0.0 10379
11:00−17ssw00966 0.0 103827
14:00−13s11935 0.0 103818
17:00−19wsw119965 0.0 10409
20:00−21wsw1110045 0.0 10419
24 january, mon
mon2423:00−22sw2210052 0.0 10419
02:00−23sw22100100 0.0 104110
05:00−22sw22100100 0.0 104216
08:00−19ssw3398100 0.0 104135
11:00−14sw3490100 0.0 1041106
14:00−12sw3587100 0.0 1039158
17:00−13ssw3689100 0.0 1038107
20:00−13ssw3788100 0.0 1037147
25 january, tue
tue2523:00−14sw3890100 0.0 1035154
02:00−13sw4888100 0.0 1033191
05:00−13wsw379790 0.2 1032117
08:00−15w3598100 0.1 103183
11:00−15w379766 0.1 1031150
14:00−13w36955 0.0 1030193
17:00−18w229868 0.0 103012
20:00−21w2210086 0.0 10309
26 january, wed
wed2623:00−23w11100100 0.0 10309
02:00−23sw11100100 0.0 10309
05:00−23sse11100100 0.0 10319
08:00−24s22100100 0.0 10319
11:00−17ssw22100100 0.1 103150
14:00−13sse229657 0.0 103173
17:00−18sse2210052 0.0 103211
20:00−21s2210098 0.0 103322